Hourly Weather Roundup
Issued by NWS Central Illinois

Home | Current Version | Previous Version | Text Only | Print | Product List | Glossary On
Versions: 1 2 3 4 5 6 7 8 9 10 11 12 13 14 15 16 17 18 19 20 21 22 23 24 25 26 27 28 29 30 31 32 33 34 35 36 37 38 39 40 41 42 43 44 45 46 47 48 49 50
000
NZUS43 KILX 031110
HWRILX

AREA WEATHER ROUNDUP
NATIONAL WEATHER SERVICE, LINCOLN IL
600 AM CDT MON AUG 03 2015


CITY           SKY/WX    TMP DP  RH WIND       PRES   REMARKS
BLOOMINGTON    PTCLDY    73  66  78 NW9       29.84R
CHAMPAIGN      CLEAR     68  66  93 W7        29.82R
DANVILLE       CLEAR     69  68  96 W3        29.78R
DECATUR        CLEAR     73  67  81 W8        29.84R
EFFINGHAM      PTCLDY    70  66  89 W5        29.86R
FLORA          CLEAR     72  69  89 SW5       29.84S
GALESBURG      PTCLDY    65  62  88 NW5       29.85R
JACKSONVILLE   CLEAR     68  63  85 W5        29.85R
LACON          CLEAR     68  64  86 NW3       29.82R
LAWRENCEVILLE  CLEAR     72  70  93 SW6       29.83S
LITCHFIELD     PTCLDY    72  59  63 W8        29.87R
$$


CITY           SKY/WX    TMP DP  RH WIND       PRES   REMARKS
LINCOLN        MOCLDY    72  66  81 CALM      29.83R
MACOMB         CLEAR     65  63  93 NW5       29.87R
MATTOON        CLEAR     72  66  81 W7        29.82R
MT CARMEL AP   CLEAR     73  70  88 SW7       29.83S
OLNEY-NOBLE AP PTCLDY    70  70 100 CALM      29.84S
PARIS          CLEAR     71  69  95 SW7       29.82S
PEORIA         MOCLDY    72  63  73 N5        29.82S
PONTIAC        PTCLDY    68  67  98 CALM      29.82R
RANTOUL        PTCLDY    72  70  93 W9        29.81R
ROBINSON       CLEAR     71  70  95 SW6       29.84R
SPRINGFIELD    CLEAR     69  66  90 W6        29.84R
TAYLORVILLE    CLEAR     64  64 100 CALM      29.84R
$$

...REGIONAL REPORTS...


CITY           SKY/WX    TMP DP  RH WIND       PRES   REMARKS
CHICAGO O`HARE PTCLDY    68  65  90 W6        29.80R
KANKAKEE       CLEAR     67  65  92 CALM      29.81R
MOLINE         CLEAR     68  61  78 NW7       29.85R
MOUNT STERLING NOT AVBL
MOUNT VERNON   CLEAR     72  66  83 SW3       29.87R
PITTSFIELD     PTCLDY    71  61  70 W5        29.89R
QUINCY         CLEAR     68  61  78 W3        29.87R
ROCKFORD       MOCLDY    67  60  78 NW5       29.84R
$$


CITY           SKY/WX    TMP DP  RH WIND       PRES   REMARKS
BURLINGTON     CLEAR     66  64  93 N7        29.85S
CEDAR RAPIDS   CLEAR     61  59  93 N6        29.89R
DES MOINES     PTCLDY    69  57  65 N5        29.92R
KIRKSVILLE     PTCLDY    66  60  81 N9        29.89S
OTTUMWA        MOCLDY    65  61  87 N7        29.88R
ST LOUIS       MOCLDY    77  65  66 NW6       29.88R
$$


CITY           SKY/WX    TMP DP  RH WIND       PRES   REMARKS
TERRE HAUTE    CLEAR     73  70  90 W6        29.82S
EVANSVILLE     CLEAR     72  68  87 SW6       29.86R
INDIANAPOLIS   PTCLDY    70  63  78 SE8       29.82R
LAFAYETTE      CLEAR     65  64  97 CALM      29.78S
MADISON        PTCLDY    63  54  72 CALM      29.83R
MILWAUKEE      PTCLDY    67  57  70 NW6       29.79R
$$





USA.gov is the U.S. government's official web portal to all federal, state and local government web resources and services.